TITAN 3C TRANSTAGE DEB, 3373

Orbit data source: Space-Track

TITAN 3C TRANSTAGE DEB, 3373 is space debris in LEO originally from a launch on Fri, 15 Oct 1965 UTC launched from the Air Force Eastern Test Range (AFETR). Debris objects in space refer to the collection of defunct objects orbiting the Earth. Examples of debris include non-operational satellites, rocket bodies, and fragments generated from explosions, collisions, or faulty payload assembly.

Loading next visibility...
Identifier
3373, 1965-082ML
Orbit
LEO
Country
Flag of USUS
Related business
Manufacturer
Unknown
Mission
Spacecraft
Bus & Motor
Unknown
Mass
Unknown
Launch date (UTC)
1965-10-15 (61 years ago)
Launch vehicle
Unknown
Launch site
Air Force Eastern Test Range (AFETR)
Object type
Payload
Rocket body
Debris
Shape & HBR
Unknown shape, 0.1 m
Radar Cross Section
Small (<0.1 m²)

Expand to show TLE details & history
Last TLE update: 23 hours ago

TLE from 23 hours ago
0 TITAN 3C TRANSTAGE DEB
1 03373U 65082ML  26132.94784509  .00003798  00000-0  77068-3 0  9995
2 03373  30.9733 347.2495 0150339  34.1841 326.8357 14.52733857 45658
Epoch: 2026-05-12T22:44Z
TLE epoch observation values (Epoch: 2026-05-12T22:44:53.815Z)
Latitude
-0.00002°
Longitude
135.31034°
Altitude
626.501 km
Speed
7.595 km/s
True Right ascension
23h 08m 59s
True Declination
0° 00' 00"
Sunlit
Object was in daylight at epoch
Visualization orbit readout
Latitude
Unknown
Longitude
Unknown
Altitude
Unknown
Speed
Unknown
Apparent Right ascension
Unknown
Apparent Declination
Unknown
Sunlit
N/A
Visualization observer readout
Local Sidereal Time
05:48:07
Azimuth
Unknown
Elevation
Unknown
Doppler factor
Unknown
Orbital elements
Apogee altitude
827.202 km
Perigee altitude
613.762 km
Semi-major axis
7,098.619 km
Eccentricity
0.01503
Inclination
30.9733°
RAAN
347.2495°
Arg. of periapsis
34.1841°
True anomaly
325.87827°
Mean anomaly
326.8357°
Eccentric anomaly
326.3585°
Mean motion
3.62896 °/min
Orbital period
99.2 mins
BSTAR
0.00077068

Documentation

Showing up to 5 results
|